User: anonymous   Login
Location: Unspecified
(0.0000°N, 0.0000°E)
Time: 11:26:42
(UTC+01:00)
Language:

SJ-6B - Orbit

View from above orbital plane
View from above orbital plane
View from above satellite
View from above satellite

Ground track
Ground track

The orbit data is extracted from the following two-line orbital elements,

1 28415U 04035C   18020.90891350 +.00000678 +00000-0 +48965-4 0  9995
2 28415 097.7246 055.9372 0053516 101.8212 258.9024 15.06407859731357
Epoch (UTC): 20 January 2018 21:48:50
Eccentricity: 0.0053516
inclination: 97.7246°
perigee height: 510 km
apogee height: 584 km
right ascension of ascending node: 55.9372°
argument of perigee: 101.8212°
revolutions per day: 15.06407859
mean anomaly at epoch: 258.9024°
orbit number at epoch: 73135

The dashed part of the orbit path shows where the satellite is in the earth's shadow,  

DLR